Waarnemingen

Advertentie
Mijn weer
Jaen, Spanje (8417): temperatuur & dauwpunt: 14.08.2018 01:00:00 - 20.08.2018 01:00:00 (CEST)Jaen, Spanje (8417): windsnelheid: 14.08.2018 01:00:00 - 20.08.2018 01:00:00 (CEST)Jaen, Spanje (8417): windrichting: 14.08.2018 01:00:00 - 20.08.2018 01:00:00 (CEST)Jaen, Spanje (8417): luchtdruk: 14.08.2018 01:00:00 - 20.08.2018 01:00:00 (CEST)Jaen, Spanje (8417): zicht: 14.08.2018 01:00:00 - 20.08.2018 01:00:00 (CEST)Jaen, Spanje (8417): neerslag: 14.08.2018 01:00:00 - 20.08.2018 01:00:00 (CEST)
Datum & Tijd tt [°C] td [°C] ff [km/u] ff [kn] dd ppp [hPa] vv [km] rr [mm]
20.08.2018 01:00:00 26,6 15,9 16 9 ZZO 1016,0 20 0,0
20.08.2018 00:00:00 27,4 16,1 15 8 ZZO 1015,8 20 0,0
19.08.2018 23:00:00 28,5 15,8 9 5 Z 1014,8 20 -
19.08.2018 22:00:00 29,2 15,3 16 9 ZZO 1013,8 20 0,0
19.08.2018 21:00:00 31,2 13,0 2 1 N 1012,9 20 0,0
19.08.2018 20:00:00 33,2 12,2 5 3 N 1012,2 20 -
19.08.2018 19:00:00 34,0 12,9 5 3 N 1012,1 20 0,0
19.08.2018 18:00:00 34,5 11,6 9 5 NNW 1012,3 20 0,0
19.08.2018 17:00:00 34,4 13,8 4 2 NNO 1012,5 20 -
19.08.2018 16:00:00 33,6 16,0 5 3 N 1013,1 20 0,0
19.08.2018 15:00:00 32,2 16,5 5 3 NNO 1013,8 20 0,0
19.08.2018 14:00:00 31,3 16,5 8 4 ONO 1014,7 19 -
19.08.2018 13:00:00 30,1 16,5 5 3 ONO 1015,5 20 0,0
19.08.2018 12:00:00 28,7 15,6 9 5 O 1015,9 20 0,0
19.08.2018 11:00:00 27,2 16,2 11 6 OZO 1016,2 20 -
19.08.2018 10:00:00 25,2 15,8 15 8 ZO 1016,7 20 0,0
19.08.2018 09:00:00 24,0 16,0 13 7 Z 1016,6 20 0,0
19.08.2018 08:00:00 23,1 15,9 18 10 Z 1016,5 20 -
19.08.2018 07:00:00 23,4 15,7 16 9 Z 1015,9 20 0,0
19.08.2018 06:00:00 23,7 15,7 15 8 Z 1015,9 20 0,0
19.08.2018 05:00:00 24,2 15,7 16 9 Z 1015,6 20 -
19.08.2018 04:00:00 24,7 15,3 13 7 Z 1015,4 20 0,0
19.08.2018 03:00:00 25,4 15,4 21 11 Z 1015,2 20 0,0
19.08.2018 02:00:00 26,1 14,5 8 4 ZW 1015,1 20 -
19.08.2018 01:00:00 26,5 15,2 21 11 Z 1014,6 20 0,0
19.08.2018 00:00:00 27,2 14,9 22 12 ZZO 1014,2 20 0,0
18.08.2018 23:00:00 28,2 14,8 18 10 Z 1013,9 20 -
18.08.2018 22:00:00 28,7 14,9 16 9 ZZO 1013,4 20 0,0
18.08.2018 21:00:00 29,9 14,0 2 1 ZZW 1012,4 20 0,0
18.08.2018 20:00:00 32,1 12,8 4 2 NNO 1011,5 20 -
18.08.2018 19:00:00 32,8 13,4 5 3 N 1011,4 20 0,0
18.08.2018 18:00:00 33,2 14,8 8 4 N 1011,4 20 0,0
18.08.2018 17:00:00 32,9 15,4 5 3 ONO 1011,8 20 -
18.08.2018 16:00:00 32,3 16,2 8 4 NNW 1012,6 20 0,0
18.08.2018 15:00:00 31,8 16,5 5 3 NNW 1013,4 20 0,0
18.08.2018 14:00:00 30,9 16,5 5 3 N 1014,4 20 -
18.08.2018 13:00:00 29,9 16,3 8 4 NNW 1015,1 20 0,0
18.08.2018 12:00:00 29,3 15,8 5 3 NNO 1015,4 20 0,0
18.08.2018 11:00:00 27,5 15,2 8 4 O 1015,6 20 -
18.08.2018 10:00:00 26,2 14,6 9 5 ZO 1015,8 20 0,0
18.08.2018 09:00:00 24,3 14,4 11 6 ZZO 1016,0 20 0,0
18.08.2018 08:00:00 22,7 14,3 11 6 Z 1016,0 20 -
18.08.2018 07:00:00 22,9 13,9 9 5 Z 1015,6 20 0,0
18.08.2018 06:00:00 21,9 14,5 5 3 ZZW 1015,8 20 0,0
18.08.2018 05:00:00 22,4 14,3 4 2 ZZW 1015,7 20 -
18.08.2018 04:00:00 23,6 14,0 8 4 WZW 1015,3 20 0,0
18.08.2018 03:00:00 24,1 13,6 4 2 W 1015,0 20 0,0
18.08.2018 02:00:00 24,8 13,0 2 1 ZW 1015,0 20 -
18.08.2018 01:00:00 25,5 13,0 4 2 WZW 1014,9 20 0,0
18.08.2018 00:00:00 26,9 12,9 16 9 Z 1013,9 20 0,0
17.08.2018 23:00:00 27,7 12,1 16 9 ZZO 1013,7 20 -
17.08.2018 22:00:00 27,2 12,0 16 9 ZZO 1013,7 20 0,0
17.08.2018 21:00:00 27,6 11,2 8 4 Z 1012,9 19 0,0
17.08.2018 20:00:00 30,1 12,5 5 3 ZW 1012,0 20 -
17.08.2018 19:00:00 31,7 12,0 9 5 NNW 1011,5 20 0,0
17.08.2018 18:00:00 31,7 11,5 9 5 N 1011,7 20 0,0
17.08.2018 17:00:00 31,0 14,2 11 6 NNW 1012,3 20 -
17.08.2018 16:00:00 30,4 17,1 11 6 N 1013,1 20 0,0
17.08.2018 15:00:00 29,7 16,8 8 4 NNO 1014,0 20 0,0
17.08.2018 14:00:00 28,4 16,3 9 5 NNW 1014,7 20 -
17.08.2018 13:00:00 27,2 17,4 9 5 N 1015,5 20 0,0
17.08.2018 12:00:00 25,5 16,9 4 2 NO 1016,2 20 0,0
17.08.2018 11:00:00 23,1 16,6 4 2 OZO 1016,7 20 -
17.08.2018 10:00:00 21,3 15,8 5 3 NW 1016,8 20 0,0
17.08.2018 09:00:00 20,6 15,8 11 6 NNW 1017,1 20 0,0
17.08.2018 08:00:00 20,4 15,6 9 5 W 1016,2 20 -
17.08.2018 07:00:00 21,1 14,7 9 5 Z 1015,6 20 0,0
17.08.2018 06:00:00 21,4 13,8 13 7 Z 1015,6 20 0,0
17.08.2018 05:00:00 20,2 15,2 9 5 ZO 1016,2 20 -
17.08.2018 04:00:00 20,5 15,1 4 2 Z 1016,6 20 0,0
17.08.2018 03:00:00 20,5 15,1 5 3 WZW 1016,3 20 0,0
17.08.2018 02:00:00 20,1 15,9 4 2 Z 1016,2 20 -
17.08.2018 01:00:00 22,0 14,6 9 5 N 1016,1 20 0,0
17.08.2018 00:00:00 20,9 13,1 24 13 Z 1015,6 20 0,0
16.08.2018 23:00:00 18,6 15,8 28 15 Z 1016,9 19 -
16.08.2018 22:00:00 17,1 15,3 11 6 Z 1017,5 9 29,0
16.08.2018 21:00:00 19,7 15,8 15 8 ZZO 1016,2 7 5,0
16.08.2018 20:00:00 26,8 13,2 22 12 ZO 1013,1 20 -
16.08.2018 19:00:00 30,9 12,3 15 8 NNW 1011,3 20 0,0
16.08.2018 18:00:00 31,5 13,3 13 7 NW 1011,0 20 0,0
16.08.2018 17:00:00 31,3 14,9 15 8 NW 1011,4 20 -
16.08.2018 16:00:00 31,4 15,4 11 6 NNW 1012,3 20 0,0
16.08.2018 15:00:00 30,2 15,9 13 7 NNW 1012,9 20 0,0
16.08.2018 14:00:00 29,1 15,6 9 5 NNO 1013,7 20 -
16.08.2018 13:00:00 27,9 15,5 5 3 NNO 1014,8 20 0,0
16.08.2018 12:00:00 26,3 15,7 5 3 NNO 1015,7 20 0,0
16.08.2018 11:00:00 24,8 15,7 4 2 O 1015,8 20 -
16.08.2018 10:00:00 22,8 14,9 5 3 N 1016,2 20 0,0
16.08.2018 09:00:00 21,1 15,0 4 2 NNW 1016,6 20 0,0
16.08.2018 08:00:00 20,0 14,1 4 2 OZO 1017,0 20 -
16.08.2018 07:00:00 20,2 14,6 5 3 Z 1016,6 20 0,0
16.08.2018 06:00:00 20,6 14,7 4 2 ZZW 1016,2 20 0,0
16.08.2018 05:00:00 21,5 14,6 4 2 O 1016,0 20 -
16.08.2018 04:00:00 22,5 14,6 4 2 OZO 1015,7 20 0,0
16.08.2018 03:00:00 22,7 14,3 4 2 ZW 1015,4 20 0,0
16.08.2018 02:00:00 23,6 14,0 4 2 Z 1015,2 20 -
16.08.2018 01:00:00 24,5 13,7 2 1 ZZO 1015,0 20 0,0
16.08.2018 00:00:00 25,4 12,6 5 3 W 1014,9 20 0,0
15.08.2018 23:00:00 26,5 14,6 13 7 Z 1014,7 20 -
15.08.2018 22:00:00 28,2 11,3 8 4 Z 1013,9 20 0,0
15.08.2018 21:00:00 29,8 10,4 9 5 WNW 1012,7 20 0,0
15.08.2018 20:00:00 31,1 11,5 16 9 NW 1011,8 20 -
15.08.2018 19:00:00 32,0 13,2 15 8 WNW 1011,7 20 0,0
15.08.2018 18:00:00 32,5 12,2 16 9 WNW 1011,6 20 0,0
15.08.2018 17:00:00 32,4 11,5 15 8 NW 1012,2 20 -
15.08.2018 16:00:00 32,2 12,4 18 10 NW 1012,6 20 0,0
15.08.2018 15:00:00 31,4 12,2 15 8 NW 1013,5 20 0,0
15.08.2018 14:00:00 30,0 12,9 13 7 NW 1014,6 20 -
15.08.2018 13:00:00 29,3 12,7 9 5 N 1015,0 20 0,0
15.08.2018 12:00:00 27,5 11,9 4 2 NO 1015,6 20 0,0
15.08.2018 11:00:00 25,7 11,8 5 3 N 1016,2 20 -
15.08.2018 10:00:00 24,2 11,8 4 2 NNO 1016,4 20 0,0
15.08.2018 09:00:00 22,6 11,6 4 2 NNO 1016,4 20 0,0
15.08.2018 08:00:00 20,5 11,1 2 1 Z 1016,5 20 -
15.08.2018 07:00:00 20,7 10,8 0 0 N 1015,9 20 0,0
15.08.2018 06:00:00 20,8 10,6 4 2 Z 1015,8 20 0,0
15.08.2018 05:00:00 21,8 10,6 4 2 Z 1015,7 20 -
15.08.2018 04:00:00 22,5 10,6 5 3 ZW 1015,7 20 0,0
15.08.2018 03:00:00 23,2 10,6 4 2 Z 1015,9 20 0,0
15.08.2018 02:00:00 23,8 10,8 4 2 WZW 1016,2 20 -
15.08.2018 01:00:00 25,2 10,6 2 1 ZZW 1015,5 20 0,0
15.08.2018 00:00:00 26,0 10,2 5 3 Z 1015,1 20 0,0
14.08.2018 23:00:00 27,6 9,9 8 4 WZW 1014,4 20 -
14.08.2018 22:00:00 29,1 10,2 16 9 W 1013,4 20 0,0
14.08.2018 21:00:00 30,6 9,5 13 7 W 1012,9 20 0,0
14.08.2018 20:00:00 32,6 8,1 16 9 WNW 1012,2 20 -
14.08.2018 19:00:00 33,6 8,3 13 7 NW 1011,9 20 0,0
14.08.2018 18:00:00 33,8 9,1 13 7 NW 1012,1 20 0,0
14.08.2018 17:00:00 33,6 10,2 15 8 NNW 1012,4 20 -
14.08.2018 16:00:00 33,2 9,9 13 7 NNW 1012,9 20 0,0
14.08.2018 15:00:00 31,9 10,6 18 10 NNW 1013,6 20 0,0
14.08.2018 14:00:00 30,4 13,2 15 8 NNW 1014,3 20 -
14.08.2018 13:00:00 29,8 13,1 8 4 NNO 1014,9 20 0,0
14.08.2018 12:00:00 27,4 11,8 8 4 N 1015,7 20 0,0
14.08.2018 11:00:00 25,6 12,4 5 3 NNO 1015,9 20 -
14.08.2018 10:00:00 23,3 12,3 5 3 NNO 1016,4 20 0,0
14.08.2018 09:00:00 21,2 11,5 4 2 NNW 1016,5 20 0,0
14.08.2018 08:00:00 19,4 11,9 2 1 Z 1016,5 19 -
14.08.2018 07:00:00 19,7 10,9 4 2 WZW 1015,9 20 0,0
14.08.2018 06:00:00 20,5 11,1 4 2 ZW 1015,2 20 0,0
14.08.2018 05:00:00 21,5 10,9 4 2 WZW 1014,9 20 -
14.08.2018 04:00:00 22,4 11,2 4 2 W 1014,9 20 0,0
14.08.2018 03:00:00 23,9 10,9 4 2 WZW 1014,5 20 0,0
14.08.2018 02:00:00 25,6 11,0 4 2 NNW 1014,1 20 -
14.08.2018 01:00:00 26,5 11,0 13 7 WZW 1013,4 20 0,0

tt = temperatuur
td = dauwpunt
ff = windsnelheid
dd = windrichting
ppp = luchtdruk
vv = zicht
rr = neerslag

Weerstations in de omgeving